Погода 10 Зволле

Нидерланды     52°30′32″N   6°05′38″E
темп.,
°C
ветер,
м/с
пор.,
м/с
влажн.,
%
обл.,
%
осадки,
мм/ч
давл.,
гПа
погр.,
м
8 марта, пн
пн801:00+3зсз379392 0.3 1023307
04:00+3зсз3697100 0.2 1023242
07:00+3с1298100 0.4 102367
10:00+4в1292100 0.3 1024219
13:00+5ююз1288100 0.3 1023263
16:00+6з247697 0.2 1022726
19:00+4юз228499 0.2 102150
22:00+3ююз4891100 0.1 1021453
9 марта, вт
вт901:00+3ююз61094100 1.8 1019426
04:00+4юз61095100 2.5 1017450
07:00+5зсз4996100 5.1 1016434
10:00+6зсз469094 0.4 1016564
13:00+8зсз567893 0.9 1017823
16:00+8зсз467561 0.1 1017889
19:00+4сз249340 0.1 1017124
22:00+3зсз23947 0.0 101987
10 марта, ср
ср1001:00+3зюз229017 0.0 101848
04:00+1ююз239647 0.0 101836
07:00+4ююз389460 0.0 1018280
10:00+6ююз5885100 0.0 1018410
13:00+8ююз61075100 0.0 1017948
16:00+9ююз61170100 0.0 10151254
19:00+7ююз51277100 0.3 10131164
22:00+7ююз81681100 0.6 10101062
11 марта, чт
чт1101:00+7ююз91786100 1.8 1006886
04:00+7ююз91885100 0.1 1002895
07:00+9ююз101988100 1.3 9991003
10:00+10юз82279100 2.1 9991932
13:00+12зюз12205752 2.2 9992265
16:00+10зюз11186285 0.6 9991965
19:00+8зюз8177093 1.3 10001374
22:00+7зюз71673100 0.7 10021205
12 марта, пт
пт1201:00+5зюз7157779 0.9 10041012
04:00+4зюз6147931 0.0 1005851
07:00+4юз7157939 0.0 1006913
10:00+7юз9157187 0.0 10061486
13:00+6юз9168694 1.2 10051293
16:00+6юз81591100 5.3 10041153
19:00+5юз5138488 6.1 1004649
22:00+5юз5118495 0.3 1004803